Weather History for Rutland, VT

Change the Weather History Date:

Saturday, November 17, 2012

  Actual Average Record
Temperature  
Mean Temperature 31 °F -  
Max Temperature 41 °F - 66 °F (2006)
Min Temperature 21 °F - 11 °F (1972)
Degree Days  
Heating Degree Days 34    
Month to date heating degree days 466  
Since 1 July heating degree days 1101  
Cooling Degree Days 0    
Month to date cooling degree days 0  
Year to date cooling degree days 411  
Moisture  
Dew Point 23 °F    
Average Humidity 69    
Maximum Humidity 92    
Minimum Humidity 45    
Precipitation  
Precipitation 0.00 in - 1.27 in (2002)
Month to date precipitation 0.37  
Year to date precipitation 21.85  
Sea Level Pressure  
Sea Level Pressure 30.60 in    
Wind  
Wind Speed 5 mph (ESE)    
Max Wind Speed 8 mph    
Max Gust Speed -    
Visibility 10 miles    
Events      
T = Trace of Precipitation, MM = Missing Value Source: NWS Daily Summary

Daily Weather History Graph

Daily Weather History Graph

Search for Another Location

Airport:

Trip Planner

Search our weather history database for the weather conditions in past years. The results will help you decide how hot, cold, wet, or windy it might be!

Date:

Astronomy

Nov. 17, 2012 Rise Set
Actual Time 6:48 AM EST 4:24 PM EST
Civil Twilight 6:17 AM EST 4:55 PM EST
Nautical Twilight 5:42 AM EST 5:30 PM EST
Astronomical Twilight 5:08 AM EST 6:04 PM EST
Moon 10:31 AM EST 8:31 PM EST
Length of Visible Light 10h 38m
Length of Day
9h 35m
Waxing Crescent, 20% of the Moon is Illuminated
Nov 17
Waxing Crescent
Nov 20
First Quarter
Nov 28
Full
Dec 6
Last Quarter
Dec 13
New

Hourly Weather History & Observations

Time (EST) Temp. Windchill Dew Point Humidity Pressure Visibility Wind Dir Wind Speed Gust Speed Precip Events Conditions
12:15 AM 26.6 °F 21.2 °F 23.0 °F 86% 30.47 in 10.0 mi SE 4.6 mph - N/A   Mostly Cloudy
12:35 AM 24.8 °F 17.9 °F 21.2 °F 86% 30.47 in 10.0 mi SSE 5.8 mph - N/A   Partly Cloudy
12:55 AM 26.6 °F 21.2 °F 23.0 °F 86% 30.47 in 10.0 mi ESE 4.6 mph - N/A   Partly Cloudy
1:15 AM 26.6 °F 19.1 °F 21.2 °F 80% 30.48 in 10.0 mi ESE 6.9 mph - N/A   Clear
1:35 AM 26.6 °F 19.1 °F 21.2 °F 80% 30.48 in 10.0 mi ESE 6.9 mph - N/A   Clear
1:55 AM 24.8 °F 19.1 °F 21.2 °F 86% 30.49 in 10.0 mi ESE 4.6 mph - N/A   Clear
2:15 AM 24.8 °F 16.9 °F 21.2 °F 86% 30.50 in 10.0 mi ESE 6.9 mph - N/A   Clear
2:35 AM 24.8 °F 17.9 °F 21.2 °F 86% 30.50 in 10.0 mi ESE 5.8 mph - N/A   Clear
2:55 AM 24.8 °F 16.9 °F 21.2 °F 86% 30.50 in 10.0 mi SE 6.9 mph - N/A   Clear
3:15 AM 23.0 °F 15.8 °F 19.4 °F 86% 30.51 in 10.0 mi SE 5.8 mph - N/A   Clear
3:35 AM 24.8 °F 16.1 °F 21.2 °F 86% 30.51 in 10.0 mi SE 8.1 mph - N/A   Clear
3:55 AM 23.0 °F 14.7 °F 19.4 °F 86% 30.51 in 10.0 mi SE 6.9 mph - N/A   Clear
4:15 AM 24.8 °F 16.1 °F 21.2 °F 86% 30.52 in 10.0 mi SE 8.1 mph - N/A   Clear
4:35 AM 23.0 °F 14.7 °F 19.4 °F 86% 30.53 in 10.0 mi SE 6.9 mph - N/A   Clear
4:55 AM 23.0 °F 15.8 °F 19.4 °F 86% 30.54 in 10.0 mi SE 5.8 mph - N/A   Clear
5:15 AM 23.0 °F 15.8 °F 21.2 °F 93% 30.55 in 10.0 mi ESE 5.8 mph - N/A   Clear
5:35 AM 23.0 °F 15.8 °F 19.4 °F 86% 30.56 in 10.0 mi ESE 5.8 mph - N/A   Clear
5:55 AM 23.0 °F 14.7 °F 19.4 °F 86% 30.57 in 10.0 mi ESE 6.9 mph - N/A   Mostly Cloudy
6:15 AM 23.0 °F 15.8 °F 19.4 °F 86% 30.57 in 10.0 mi ESE 5.8 mph - N/A   Mostly Cloudy
6:35 AM 21.2 °F - 19.4 °F 93% 30.58 in 10.0 mi Calm Calm - N/A   Partly Cloudy
6:55 AM 21.2 °F 14.9 °F 19.4 °F 93% 30.59 in 10.0 mi ESE 4.6 mph - N/A   Clear
7:15 AM 21.2 °F 12.6 °F 17.6 °F 86% 30.60 in 10.0 mi SE 6.9 mph - N/A   Clear
7:35 AM 21.2 °F 13.6 °F 19.4 °F 93% 30.61 in 10.0 mi SE 5.8 mph - N/A   Clear
7:55 AM 24.8 °F 19.1 °F 19.4 °F 80% 30.61 in 10.0 mi SE 4.6 mph - N/A   Clear
8:15 AM 24.8 °F 20.5 °F 21.2 °F 86% 30.61 in 10.0 mi SE 3.5 mph - N/A   Clear
8:35 AM 26.6 °F 22.6 °F 23.0 °F 86% 30.61 in 10.0 mi SE 3.5 mph - N/A   Clear
8:55 AM 26.6 °F - 23.0 °F 86% 30.62 in 10.0 mi Calm Calm - N/A   Clear
9:15 AM 30.2 °F - 26.6 °F 86% 30.62 in 10.0 mi Calm Calm - N/A   Clear
9:35 AM 32.0 °F - 28.4 °F 87% 30.63 in 10.0 mi Calm Calm - N/A   Clear
9:55 AM 32.0 °F 28.7 °F 28.4 °F 87% 30.63 in 10.0 mi North 3.5 mph - N/A   Clear
10:15 AM 33.8 °F 28.6 °F 28.4 °F 81% 30.63 in 10.0 mi NNW 5.8 mph - N/A   Clear
10:35 AM 33.8 °F 29.6 °F 28.4 °F 81% 30.64 in 10.0 mi NNW 4.6 mph - N/A   Clear
10:55 AM 35.6 °F 30.7 °F 28.4 °F 75% 30.63 in 10.0 mi NNE 5.8 mph - N/A   Clear
11:15 AM 35.6 °F 31.7 °F 26.6 °F 70% 30.62 in 10.0 mi NW 4.6 mph - N/A   Clear
11:55 AM 37.4 °F 34.9 °F 26.6 °F 65% 30.61 in 10.0 mi NNW 3.5 mph - N/A   Clear
12:35 PM 39.2 °F 34.2 °F 28.4 °F 65% 30.61 in 10.0 mi WNW 6.9 mph - N/A   Clear
12:55 PM 39.2 °F 34.2 °F 26.6 °F 61% 30.60 in 10.0 mi NNW 6.9 mph - N/A   Clear
1:15 PM 39.2 °F 34.2 °F 26.6 °F 61% 30.60 in 10.0 mi NW 6.9 mph - N/A   Clear
1:35 PM 41.0 °F 36.4 °F 26.6 °F 57% 30.60 in 10.0 mi WNW 6.9 mph - N/A   Clear
1:55 PM 41.0 °F 36.4 °F 24.8 °F 53% 30.60 in 10.0 mi NW 6.9 mph - N/A   Clear
2:15 PM 41.0 °F 37.1 °F 24.8 °F 53% 30.60 in 10.0 mi NNW 5.8 mph - N/A   Clear
2:35 PM 41.0 °F 35.8 °F 23.0 °F 49% 30.60 in 10.0 mi NW 8.1 mph - N/A   Clear
2:55 PM 41.0 °F 35.8 °F 21.2 °F 45% 30.60 in 10.0 mi North 8.1 mph - N/A   Clear
3:15 PM 41.0 °F 38.0 °F 23.0 °F 49% 30.61 in 10.0 mi NW 4.6 mph - N/A   Clear
3:35 PM 39.2 °F 35.0 °F 23.0 °F 52% 30.61 in 10.0 mi North 5.8 mph - N/A   Clear
3:55 PM 39.2 °F 37.0 °F 23.0 °F 52% 30.61 in 10.0 mi NNW 3.5 mph - N/A   Clear
4:15 PM 39.2 °F - 23.0 °F 52% 30.61 in 10.0 mi Calm Calm - N/A   Clear
4:35 PM 37.4 °F 34.9 °F 23.0 °F 56% 30.61 in 10.0 mi NNW 3.5 mph - N/A   Clear
4:55 PM 33.8 °F - 21.2 °F 60% 30.62 in 10.0 mi Calm Calm - N/A   Clear
5:15 PM 33.8 °F 30.8 °F 24.8 °F 70% 30.62 in 10.0 mi SE 3.5 mph - N/A   Clear
5:35 PM 30.2 °F 23.4 °F 23.0 °F 75% 30.62 in 10.0 mi SE 6.9 mph - N/A   Clear
5:55 PM 30.2 °F 23.4 °F 24.8 °F 80% 30.63 in 10.0 mi SE 6.9 mph - N/A   Clear
6:15 PM 30.2 °F 23.4 °F 24.8 °F 80% 30.63 in 10.0 mi SE 6.9 mph - N/A   Clear
6:35 PM 30.2 °F 22.6 °F 24.8 °F 80% 30.64 in 10.0 mi ESE 8.1 mph - N/A   Clear
6:55 PM 30.2 °F 26.7 °F 24.8 °F 80% 30.64 in 10.0 mi ESE 3.5 mph - N/A   Clear
7:15 PM 30.2 °F 24.3 °F 24.8 °F 80% 30.64 in 10.0 mi SE 5.8 mph - N/A   Clear
7:35 PM 28.4 °F 20.4 °F 21.2 °F 74% 30.64 in 10.0 mi SE 8.1 mph - N/A   Clear
7:55 PM 28.4 °F 20.4 °F 23.0 °F 80% 30.64 in 10.0 mi SE 8.1 mph - N/A   Clear
8:15 PM 28.4 °F 20.4 °F 23.0 °F 80% 30.64 in 10.0 mi SE 8.1 mph - N/A   Clear
8:35 PM 28.4 °F 23.3 °F 24.8 °F 86% 30.65 in 10.0 mi SE 4.6 mph - N/A   Clear
8:55 PM 28.4 °F 22.2 °F 23.0 °F 80% 30.65 in 10.0 mi SE 5.8 mph - N/A   Clear
9:15 PM 28.4 °F 19.7 °F 21.2 °F 74% 30.65 in 10.0 mi SE 9.2 mph - N/A   Clear
9:35 PM 28.4 °F 22.2 °F 21.2 °F 74% 30.65 in 10.0 mi ESE 5.8 mph - N/A   Clear
9:55 PM 28.4 °F 22.2 °F 21.2 °F 74% 30.65 in 10.0 mi ESE 5.8 mph - N/A   Clear
10:15 PM 26.6 °F 19.1 °F 23.0 °F 86% 30.66 in 10.0 mi ESE 6.9 mph - N/A   Clear
10:35 PM 26.6 °F 19.1 °F 21.2 °F 80% 30.66 in 10.0 mi ESE 6.9 mph - N/A   Clear
10:55 PM 26.6 °F 18.2 °F 21.2 °F 80% 30.66 in 10.0 mi SE 8.1 mph - N/A   Clear
11:15 PM 24.8 °F 19.1 °F 21.2 °F 86% 30.67 in 10.0 mi SE 4.6 mph - N/A   Clear
11:35 PM 26.6 °F 19.1 °F 21.2 °F 80% 30.68 in 10.0 mi ESE 6.9 mph - N/A   Clear
11:55 PM 26.6 °F 19.1 °F 21.2 °F 80% 30.68 in 10.0 mi SE 6.9 mph - N/A   Clear